Location: Chevilly
(48.7648°N, 2.3503°E)
Time: 12:16:14
(UTC+00:00)

Daily predictions for brighter satellites

Satellite Brightness Start Highest point End
(mag) Time Altitude Azimuth Time Altitude Azimuth Time Altitude Azimuth
CSL-04 Debris 4.4 18:58:19 10° SE 19:03:28 50° ENE 19:08:39 10° N
Meteor 1-22 Rocket 4.3 18:58:43 10° S 19:04:16 68° E 19:10:06 10° NNE
Cosmos 1898 Rocket 3.9 18:59:59 10° S 19:04:51 40° ESE 19:09:43 10° NE
CZ-4 R/B 1.9 19:02:11 10° SE 19:05:40 35° ENE 19:09:07 10° N
PSLV R/B 4.4 19:02:36 10° S 19:06:32 50° W 19:10:32 10° NNW
Resurs 01 Rocket 2.7 19:03:21 10° S 19:07:36 48° W 19:11:52 10° NNW
Okean O Rocket 3.4 19:07:43 10° E 19:10:13 15° ENE 19:12:43 10° NNE
Meteor 1-24 Rocket 3.7 19:08:23 10° N 19:13:50 77° ENE 19:19:26 10° SSE
Cosmos 1538 Rocket 4.0 19:08:56 10° NNW 19:14:07 87° ENE 19:19:17 10° SSE
Cosmos 2333 4.2 19:08:45 10° S 19:14:13 58° ESE 19:19:43 10° NE
Tiangong 0.6 19:13:53 10° SSW 19:14:17 10° SSW 19:14:42 10° SSW
Cosmos 372 Rocket 4.0 19:10:28 10° S 19:15:38 66° ESE 19:20:50 10° NNE
CENTAUR R/B 4.3 19:08:07 10° NW 19:16:07 48° WSW 19:25:01 10° S
Cosmos 1680 Rocket 4.3 19:12:43 10° N 19:17:30 35° ENE 19:22:15 10° ESE
Cosmos 2219 Rocket 2.4 19:14:45 10° S 19:20:06 49° ESE 19:25:28 10° NE
SPOT 5 2.7 19:16:14 10° SSE 19:21:00 78° ENE 19:25:33 10° N
CZ-4B R/B 3.6 19:19:46 10° SSE 19:23:19 66° ENE 19:27:01 10° N
Cosmos 2074 Rocket 4.0 19:17:20 10° S 19:23:32 73° E 19:29:47 10° NNE
Meteor 1-31 Rocket 2.5 19:22:29 10° SSE 19:25:58 68° ENE 19:29:29 10° N
Cosmos 1937 Rocket 3.8 19:21:21 10° S 19:26:22 46° ESE 19:31:25 10° NNE
SL-24 R/B - RUBIN 2 4.2 19:27:17 10° NNW 19:31:30 44° NE 19:35:17 13° ESE
Cosmos 923 Rocket 4.2 19:28:23 10° NNW 19:33:40 60° ENE 19:38:50 10° SE
USA 234 3.3 19:28:54 10° NE 19:35:30 87° SSE 19:42:04 10° WSW
NOSS 2-3 (E) 4.4 19:32:09 10° NW 19:36:56 56° NE 19:42:20 14° ESE
COSMOS 2428 3.7 19:33:09 10° SSE 19:37:39 24° ESE 19:42:09 10° NE
IRAS Rocket 4.4 19:33:51 10° SSE 19:39:22 78° WSW 19:44:53 10° NNW
Cosmos 1953 2.7 19:36:23 10° SSW 19:39:55 58° WNW 19:43:29 10° N
Meteor 1-15 Rocket 4.2 19:34:33 10° S 19:40:07 89° W 19:45:45 10° NNE
PAYLOAD B 4.3 19:34:56 10° SSE 19:40:22 66° ENE 19:45:50 10° N
CZ-4B R/B 3.4 19:35:32 10° SE 19:40:54 56° ENE 19:46:24 10° N
MetOp-B 4.3 19:36:05 10° SE 19:41:17 55° ENE 19:46:32 10° N
CZ-4B DEB 4.2 19:36:04 10° SSE 19:41:29 76° ENE 19:46:59 10° NNW
CSL-04 Rocket 3.9 19:36:18 10° S 19:41:49 77° WSW 19:47:25 10° NNW
Cosmos 2278 Rocket 3.3 19:38:58 10° NNW 19:43:54 29° NE 19:47:49 14° E
Cosmos 1610 Rocket 4.5 19:42:17 10° S 19:48:32 70° E 19:54:46 10° NNE
Cosmos 2333 Rocket 3.4 19:43:21 10° SW 19:48:48 47° NW 19:54:17 10° NNE
NOSS 3-2 (C) 4.1 19:41:42 10° NW 19:48:54 80° NE 19:56:23 15° SE
Cosmos 1703 Rocket 3.5 19:49:40 10° N 19:54:02 87° E 19:58:20 10° S
Geosat 3.9 19:50:06 10° NNE 19:55:07 69° ESE 20:00:06 10° SSW
BREEZE-M DEB (TANK) 1.9 19:53:38 10° W 19:56:04 78° N 19:59:33 14° E
Spot 2 Rocket 4.0 19:53:55 18° SE 19:57:19 42° ENE 20:02:01 10° N
Cosmos 1470 Rocket 3.9 19:53:01 10° SSW 19:57:23 69° W 20:01:46 10° N
Lacrosse 5 rocket 1.0 19:55:40 10° SSW 19:58:43 41° SE 20:00:40 18° ENE
Meteor 2-5 Rocket 4.4 19:53:29 10° NNW 19:58:52 54° W 20:04:15 10° S
NOSS 2-3 (D) 4.2 19:54:22 10° NW 19:59:17 72° NE 20:03:53 19° SE
ARIANE 6 FM1 Upper Stage 2.9 19:55:57 10° SW 20:00:04 72° NW 20:04:07 10° NE
ERS-1 Rocket 2.9 19:57:54 10° SSE 20:02:53 88° E 20:07:56 10° NNW
Nadezhda 3 Rocket 4.4 19:58:08 10° NNW 20:04:15 66° W 20:10:18 10° S
Cosmos 1933 Rocket 3.5 20:00:30 10° S 20:04:49 66° E 20:09:11 10° NNE
Cosmos 1943 Rocket 2.6 20:04:15 10° NNW 20:09:46 48° NE 20:12:59 23° ESE
Cosmos 2218 Rocket 4.3 20:06:05 13° SSE 20:11:14 45° E 20:17:01 10° NNE
Helios 1A Rocket 3.3 20:08:17 10° N 20:11:26 49° WNW 20:14:33 10° SSW
YAOGAN 11 4.5 20:07:58 10° NNE 20:11:57 39° E 20:13:56 24° SSE
Meteor 1-12 Rocket 4.3 20:08:17 10° S 20:14:15 86° E 20:20:19 10° NNE
In-Cosmos 22 Rocket 4.0 20:09:55 10° N 20:15:17 73° ENE 20:19:03 20° SSE
USA 59 Rocket 1.7 20:13:50 10° N 20:15:48 15° NNE 20:17:17 12° ENE
MOS 1-B 4.4 20:14:21 21° SE 20:18:15 65° ENE 20:23:59 10° N
Cosmos 1733 Rocket 4.0 20:18:21 27° E 20:18:43 27° E 20:22:25 10° NNE
CZ-4B R/B 4.2 20:20:21 26° ESE 20:22:06 34° ENE 20:26:25 10° N
SeaSat 1 4.3 20:19:54 13° ENE 20:22:21 19° NE 20:25:45 10° N
Okean-O 2.6 20:20:35 29° SE 20:22:41 62° ENE 20:27:02 10° N
Cosmos 494 Rocket 3.9 20:18:13 10° NNW 20:23:25 87° ENE 20:26:29 25° SSE
ATLAS 3B R/B 4.1 20:17:02 10° WSW 20:24:28 47° NW 20:32:03 10° NE
Cosmos 1821 Rocket 4.4 20:22:24 23° SE 20:25:44 42° E 20:31:37 10° NNE
Cosmos 962 Rocket 4.4 20:20:29 10° S 20:26:45 85° E 20:32:59 10° N
Cosmos 2360 Rocket 3.7 20:22:29 10° WSW 20:27:43 38° NW 20:33:00 10° NNE
Cosmos 1048 Rocket 4.3 20:22:49 10° NNW 20:27:49 51° ENE 20:29:52 32° ESE
Timation 2 Rocket 4.3 20:27:03 10° NNW 20:33:11 56° NE 20:36:19 30° ESE
Cosmos 1869 Rocket 3.5 20:30:47 12° S 20:34:47 86° W 20:39:14 10° N
Cosmos 2322 Rocket 4.1 20:30:50 10° WSW 20:35:50 32° NW 20:40:51 10° NNE
ADEOS 4.1 20:32:48 14° S 20:37:16 56° W 20:42:25 10° NNW
Terra 2.5 20:34:16 14° S 20:38:12 50° W 20:42:47 10° NNW
Aureole 3 4.0 20:35:10 10° N 20:39:07 46° ENE 20:40:03 40° ESE
CZ-4 R/B 3.6 20:36:50 10° SW 20:39:47 21° W 20:42:43 10° NW
BREEZE-M DEB (TANK) 4.4 20:38:58 10° SW 20:43:10 71° SSE 21:01:15 10° ENE
Cosmos 2242 Rocket 3.6 20:40:56 10° N 20:45:24 60° ENE 20:46:21 48° SE
Okean O Rocket 1.7 20:43:57 33° S 20:45:51 75° WSW 20:50:13 10° NNW
Cosmos 2237 Rocket 2.7 20:47:31 36° ESE 20:47:40 36° ESE 20:52:48 10° NE
SL-08 R/B 3.6 20:42:54 10° N 20:47:46 70° WNW 20:52:38 10° SSW
Cosmos 1980 4.1 20:47:57 38° ESE 20:48:28 39° ESE 20:53:40 10° NE
Cosmos 1025 Rocket 4.0 20:45:46 10° N 20:49:24 30° ENE 20:49:24 30° ENE
Cosmos 2322 3.7 20:45:49 10° SSW 20:51:32 88° WNW 20:57:19 10° NNE
CZ-4B R/B 2.6 20:51:35 62° ENE 20:51:35 62° ENE 20:55:06 10° N
ASTEX 1 3.3 20:50:47 45° SE 20:52:09 66° E 20:57:01 10° N
Cosmos 2292 Rocket 4.5 20:47:51 10° N 20:53:19 40° ENE 20:54:03 38° E
Cosmos 2341 Rocket 4.0 20:47:18 10° SSW 20:53:33 81° W 20:59:53 10° N
Meteor 1-21 Rocket 4.4 20:52:36 10° NNW 20:58:11 71° W 21:01:08 29° S
Cosmos 1400 Rocket 4.0 21:03:02 26° NE 21:03:02 26° NE 21:04:56 10° NNE
USA 186 4.2 21:04:43 14° NW 21:04:43 14° NW 21:05:17 10° NW
SPOT 3 Rocket 3.5 21:02:10 48° SSE 21:03:38 79° ENE 21:08:51 10° NNW
Cosmos 2219 Rocket 3.9 20:59:12 10° WSW 21:04:14 33° NW 21:09:18 10° NNE
Meteor 2-21 Rocket 4.4 21:06:58 10° N 21:13:05 74° ENE 21:14:50 48° SSE
USA 245 3.5 21:17:15 63° SW 21:17:31 65° W 21:22:02 10° NNW
USA 234 4.1 21:11:59 10° ENE 21:18:15 50° NNW 21:24:31 10° W
Cosmos 2369 Rocket 3.6 21:14:51 10° N 21:19:27 25° NE 21:20:57 22° ENE
Cosmos 1674 Rocket 3.5 21:15:56 10° N 21:19:58 68° NE 21:19:58 68° NE
COSMOS 2428 3.1 21:15:44 10° SW 21:21:24 63° WNW 21:27:08 10° NNE
Helios 1B rocket 4.4 21:23:49 16° NE 21:23:49 16° NE 21:25:02 10° NNE
NOSS 0 Rocket 3.9 21:18:05 10° SSW 21:24:20 88° WNW 21:30:37 10° NNE
Cosmos 1727 Rocket 4.0 21:20:10 10° N 21:26:34 85° W 21:28:33 47° S
Ariane Rocket 2.9 21:26:52 67° S 21:27:33 83° WSW 21:32:37 10° NNW
Cosmos 2278 Rocket 2.5 21:22:46 10° NW 21:28:21 60° WSW 21:29:39 48° SSW
USA 238 DEB 3.9 21:22:16 10° NW 21:29:39 85° SW 21:32:16 48° SSE
USA 238 3.9 21:22:26 10° NW 21:29:50 86° SW 21:32:26 48° SE
Cosmos 2221 Rocket 4.1 21:26:32 10° N 21:30:11 49° NE 21:30:11 49° NE
CZ-2C R/B 4.4 21:32:30 24° NNW 21:32:30 24° NNW 21:33:53 10° NNW
Cosmos 1346 Rocket 3.8 21:29:15 10° N 21:31:34 36° N 21:31:34 36° N
Lacrosse 5 rocket 2.9 21:32:26 10° W 21:34:04 23° WNW 21:34:04 23° WNW
Cosmos 1378 Rocket 4.1 21:35:50 10° NNW 21:40:07 50° W 21:40:16 50° WSW
Meteor 2-8 Rocket 4.4 21:47:10 57° SSW 21:48:31 84° W 21:54:37 10° N
Cosmos 1656 Rocket 3.6 21:44:46 10° NNW 21:50:13 68° ENE 21:50:17 68° ENE
Cosmos 1943 Rocket 3.3 21:48:19 10° NW 21:53:18 33° WSW 21:54:29 30° SW
Cosmos 614 Rocket 4.1 21:48:51 10° NNW 21:53:58 61° WSW 21:54:00 61° WSW
SL-16 R/B 3.6 21:58:05 25° ENE 21:58:05 25° ENE 22:00:47 10° NE
SeaSat 1 2.5 21:59:30 75° N 21:59:30 75° N 22:04:02 10° NNW
CZ-4B R/B 4.5 22:00:11 34° WSW 22:00:42 35° W 22:05:07 10° NNW
Cosmos 2123 Rocket 3.9 21:56:52 10° N 22:03:08 82° W 22:03:50 71° SSW
Cosmos 1934 Rocket 3.8 22:03:44 77° SSE 22:04:12 83° E 22:10:30 10° N
USA 59 Rocket 1.6 22:01:18 10° NW 22:02:49 26° NW 22:02:49 26° NW
NOSS 3-4 (A) 3.3 22:10:29 55° WSW 22:11:35 70° NW 22:17:30 10° NE
NOSS 3-4 (C) 3.3 22:11:02 56° WSW 22:12:05 71° NW 22:18:02 10° NE
Cosmos 2285 Rocket 4.2 22:19:17 57° ENE 22:19:17 57° ENE 22:24:43 10° NNE
Cosmos 1535 Rocket 4.4 22:26:50 73° NE 22:26:50 73° NE 22:32:32 10° NNE
NOSS 3-1 (C) 4.3 22:20:01 10° NW 22:26:37 57° NE 22:28:44 45° E
ATLAS 5 CENTAUR R/B 4.3 22:26:36 10° N 22:27:49 11° NNE 22:29:07 10° NE
ALOS 2 4.3 22:29:40 27° NNE 22:29:40 27° NNE 22:32:10 10° N
Cosmos 2237 Rocket 3.2 22:29:12 29° WSW 22:31:36 44° NW 22:37:04 10° NNE
Cosmos 1125 Rocket 4.4 22:31:28 42° W 22:32:07 45° WNW 22:37:11 10° NNE
Cosmos 1605 Rocket 3.9 22:32:45 73° NE 22:32:45 73° NE 22:38:21 10° NNE
Cosmos 2297 4.0 22:32:18 10° NNW 22:37:29 64° NNE 22:37:29 64° NNE
ARIANE 5 R/B 4.2 22:40:11 31° NNE 22:40:11 31° NNE 22:42:39 10° N
Cosmos 1975 Rocket 4.5 22:38:49 10° N 22:41:32 37° NNW 22:41:32 37° NNW
COSMOS 2455 4.2 22:38:32 10° NNW 22:43:53 31° NE 22:45:15 29° ENE
USA 234 4.2 22:54:28 10° ENE 23:00:36 44° N 23:06:44 10° WNW
Cosmos 2369 Rocket 2.8 22:58:26 10° NNW 23:02:43 52° NW 23:02:43 52° NW
NOSS 3-1 (A) 4.3 23:11:06 10° NW 23:17:46 56° NE 23:19:58 44° E
Cosmos 1943 4.3 23:21:35 37° NE 23:21:35 37° NE 23:25:05 10° NE
SJ 16-02 3.4 23:31:14 10° N 23:33:17 24° N 23:33:17 24° N
SL-16 R/B 3.0 23:39:53 44° NW 23:39:53 44° NW 23:45:07 10° NNE
ACS3 Solar Sail 3.7 23:37:02 10° NE 23:40:25 16° E 23:40:25 16° E
Cosmos 1802 Rocket 4.3 23:43:35 61° NE 23:43:35 61° NE 23:48:59 10° NNE
CZ-2C R/B 3.4 23:44:18 52° NNE 23:44:18 52° NNE 23:48:43 10° N
Meteor 2-3 Rocket 4.3 23:41:33 10° NNW 23:45:50 54° N 23:45:50 54° N
Cosmos 1725 Rocket 4.3 23:48:08 61° NE 23:48:08 61° NE 23:53:32 10° NNE
